Regional Weather Roundup
Issued by NWS

Home | Current Version | Previous Version | Text Only | Print | Product List | Glossary On
Versions: 1 2 3 4 5 6 7 8 9 10 11 12 13 14 15 16 17 18 19 20 21 22 23 24 25 26 27 28 29 30 31 32 33 34 35 36 37 38 39 40 41 42 43 44 45 46 47 48
000
ASUS45 KREV 280410
RWRNV
NEVADA REGIONAL WEATHER ROUNDUP
NATIONAL WEATHER SERVICE RENO NV
800 PM PST TUE JAN 27 2015

NOTE: "FAIR" INDICATES FEW OR NO CLOUDS BELOW 12,000 FEET WITH NO
SIGNIFICANT WEATHER AND/OR OBSTRUCTIONS TO VISIBILITY.

NVZ001-003-004-280500-
WESTERN NEVADA

CITY           SKY/WX    TMP DP  RH WIND       PRES   REMARKS
RENO           CLOUDY    45  28  51 VRB3      30.26R
CARSON CITY    CLOUDY    45  32  61 S3        30.27R
FALLON         CLOUDY    42  40  92 SE6       30.23S
LOVELOCK       CLOUDY    43  32  65 S6        30.22R
HAWTHORNE      CLOUDY    46  39  76 SE6       30.26R
$$

NVZ002-CAZ072-073-280500-
NORTHERN AND CENTRAL SIERRA

CITY           SKY/WX    TMP DP  RH WIND       PRES   REMARKS
S. LAKE TAHOE  CLOUDY    34  31  88 S3        30.28S
TRUCKEE        CLOUDY    32  30  93 CALM      30.29R
SQUAW VLY 8000   N/A     32  23  69 CALM        N/A
BLUE CANYON    CLOUDY    43  21  41 CALM      30.30R
MAMMOTH LAKES  CLOUDY    37  32  81 W5        30.29R
BRIDGEPORT     CLOUDY    37  30  75 CALM      30.26R
$$

NVZ030-031-036-280500-
NORTHERN NEVADA

CITY           SKY/WX    TMP DP  RH WIND       PRES   REMARKS
ELKO           CLOUDY    39  36  89 SW13      30.17R
WINNEMUCCA     CLOUDY    41  37  86 SE8       30.21R
WENDOVER       MOCLDY    37  30  75 NE7       30.15F
$$

NVZ035-037-280500-
CENTRAL NEVADA

CITY           SKY/WX    TMP DP  RH WIND       PRES   REMARKS
ELY            CLOUDY    37  34  89 S15       30.22S
EUREKA           N/A     39  33  79 W9        30.21R
$$

NVZ013-014-280500-
SOUTH CENTRAL NEVADA

CITY           SKY/WX    TMP DP  RH WIND       PRES   REMARKS
TONOPAH        CLOUDY    41  35  79 NW15      30.26R
$$

NVZ017-020-022-280500-
SOUTHERN NEVADA

CITY           SKY/WX    TMP DP  RH WIND       PRES   REMARKS
LAS VEGAS      PTCLDY    57  48  72 SW6       30.17S
N. LAS VEGAS   CLEAR     54  47  77 NW5       30.20R
NELLIS AFB     CLEAR     55  50  82 NE12      30.20S
HENDERSON      CLEAR     51  49  92 S6        30.23R
MERCURY        CLEAR     47  43  86 E3        30.22R
$$


USA.gov is the U.S. government's official web portal to all federal, state and local government web resources and services.